This is the latest recevied weather packets stored in our database for station/object DJ2DS-13. If no packets are shown the sender has not sent any weather packets the latest 10 day(s).
| Time | Temp. | Humidity | Pressure | Rain* | Wind** | Luminosity | Snow |
|---|---|---|---|---|---|---|---|
| 1777824105 | 14.44° C | 91% | 1007.6 hPa | 0.76 mm | - | 21 W/m² | - |
| 1777823805 | 14.44° C | 90% | 1007.6 hPa | 0.51 mm | - | 19 W/m² | - |
| 1777823505 | 14.44° C | 90% | 1007.7 hPa | 0.51 mm | - | 12 W/m² | - |
| 1777823203 | 14.44° C | 90% | 1007.7 hPa | 0.51 mm | - | 12 W/m² | - |
| 1777822903 | 14.44° C | 90% | 1007.5 hPa | 0.76 mm | - | 28 W/m² | - |
| 1777822613 | 14.44° C | 90% | 1007.4 hPa | 1.52 mm | - | 63 W/m² | - |
| 1777822302 | 14.44° C | 90% | 1007.3 hPa | 7.37 mm | - | 93 W/m² | - |
| 1777822003 | 14.44° C | 90% | 1007.2 hPa | 8.38 mm | - | 95 W/m² | - |
| 1777821702 | 14.44° C | 90% | 1007.1 hPa | 8.64 mm | - | 98 W/m² | - |
| 1777821402 | 14.44° C | 90% | 1007 hPa | 8.64 mm | - | 109 W/m² | - |
| 1777821103 | 14.44° C | 90% | 1006.9 hPa | 8.64 mm | - | 90 W/m² | - |
| 1777820800 | 14.44° C | 90% | 1007.1 hPa | 8.64 mm | - | 76 W/m² | - |
| 1777820498 | 14.44° C | 90% | 1007.3 hPa | 8.38 mm | - | 77 W/m² | - |
| 1777820200 | 14.44° C | 89% | 1007.1 hPa | 8.38 mm | - | 55 W/m² | - |
| 1777819899 | 15° C | 89% | 1007.1 hPa | 8.13 mm | - | 37 W/m² | - |
| 1777819600 | 15° C | 88% | 1007.4 hPa | 8.13 mm | - | 26 W/m² | - |
| 1777819298 | 15° C | 88% | 1007.4 hPa | 7.87 mm | - | 19 W/m² | - |
| 1777818994 | 15° C | 87% | 1007.9 hPa | 7.11 mm | - | 9 W/m² | - |
| 1777818695 | 15.56° C | 86% | 1007.4 hPa | 1.27 mm | - | 0 W/m² | - |
| 1777818395 | 15.56° C | 86% | 1006.5 hPa | 0.25 mm | - | 19 W/m² | - |
| 1777818096 | 15.56° C | 85% | 1006.5 hPa | 0 mm | - | 30 W/m² | - |
| 1777817795 | 16.11° C | 84% | 1006.5 hPa | 0 mm | - | 56 W/m² | - |
| 1777817494 | 16.67° C | 83% | 1006.7 hPa | 0 mm | - | 67 W/m² | - |
| 1777817193 | 16.67° C | 83% | 1006.7 hPa | 0 mm | - | 35 W/m² | - |
| 1777816894 | 17.78° C | 80% | 1007 hPa | 0 mm | - | 11 W/m² | - |
* Rain latest hour (hover to see other rain measurements)
** Current wind speed in m/s (hover to see current wind gust speed)